Regional Weather Roundup
Issued by NWS

Home | Current Version | Previous Version | Graphics & Text | Print | Product List | Glossary On
Versions: 1 2 3 4 5 6 7 8 9 10 11 12 13 14 15 16 17 18 19 20 21 22 23 24 25 26 27 28 29 30 31 32 33 34 35 36 37 38 39 40 41 42 43 44 45 46 47 48 49 50
000
ASUS44 KMEG 010510
RWRTN
TENNESSEE HOURLY STATE WEATHER ROUNDUP
NATIONAL WEATHER SERVICE MEMPHIS TN
1200 AM CDT WED OCT 01 2014

TNZ002-004-019-021-049-052-054-088>092-010600-
WEST TENNESSEE

CITY           SKY/WX    TMP DP  RH WIND       PRES   REMARKS
MEMPHIS INTL   MOCLDY    76  60  57 CALM      29.89S
NWS MEMPHIS      N/A     67 N/A N/A MISG        N/A
JACKSON        CLEAR     63  61  93 CALM      29.91S FOG
DYERSBURG      PTCLDY    64  54  68 CALM      29.91S
UNION CITY     CLEAR     61  59  94 CALM      29.90S
PARIS          CLEAR     57  54  88 CALM      29.92S
HUNTINGDON     CLEAR     60  58  93 CALM      29.92S
LEXINGTON      CLEAR     63  61  94 CALM      29.91S
SAVANNAH       CLEAR     61  61 100 CALM      29.92S
$$

TNZ008-025-027-028-033-062-065-066-010600-
NORTH MIDDLE TENNESSEE

CITY           SKY/WX    TMP DP  RH WIND       PRES   REMARKS
NASHVILLE      MOCLDY    64  56  75 CALM      29.93S
PORTLAND       CLEAR     57  55  94 S3        29.93R
CLARKSVILLE    PTCLDY    61  58  90 CALM      29.92S FOG
LEBANON        MOCLDY    59  53  80 CALM      29.92R
SMYRNA         MOCLDY    58  55  89 CALM      29.94R
MURFREESBORO   MOCLDY    63  53  69 CALM      29.93R
COOKEVILLE     CLEAR     52  50  93 CALM      29.95S
GALLATIN       MOCLDY    60  57  89 CALM      29.94R
CROSSVILLE     MOCLDY    59  53  80 CALM      29.99S
$$

TNZ061-075-076-078-094-096-097-010600-
SOUTH MIDDLE TENNESSEE

CITY           SKY/WX    TMP DP  RH WIND       PRES   REMARKS
LEWISBURG      MOCLDY    56  54  93 CALM      29.93S
FAYETTEVILLE   CLEAR     63  55  77 MISG      29.94S
TULLAHOMA      CLEAR     57  54  88 CALM      29.96S
WINCHESTER     CLEAR     57  55  94 CALM      29.95S
MCMINNVILLE    CLEAR     59  59 100 CALM      29.95F
COLUMBIA       MOCLDY   N/A N/A N/A CALM      29.92S
SHELBYVILLE    CLEAR     61  55  82 CALM      29.95S
$$

TNZ017-018-042-046-047-010600-
NORTHEAST TENNESSEE

CITY           SKY/WX    TMP DP  RH WIND       PRES   REMARKS
TRI CITIES     CLEAR     56  53  90 CALM      29.98S FOG
ELIZABETHTON   CLEAR     55  54  94 CALM      29.99F
$$

TNZ012-013-036-069-073-074-010600-
CENTRAL EAST TENNESSEE

CITY           SKY/WX    TMP DP  RH WIND       PRES   REMARKS
KNOXVILLE      CLEAR     62  58  86 CALM      29.94S
OAK RIDGE      CLEAR     61  58  90 CALM      29.96F
GATLINBURG     CLEAR     57  55  94 CALM      29.96S
MORRISTOWN     CLEAR     59  55  88 CALM      29.98S
$$

TNZ083-085-099-010600-
SOUTHEAST TENNESSEE

CITY           SKY/WX    TMP DP  RH WIND       PRES   REMARKS
CHATTANOOGA    CLEAR     65  62  90 CALM      29.94F
$$

SKY/WX REPORTED AS FAIR MEANS FEW OR NO CLOUDS BELOW
12 THOUSAND FEET.




USA.gov is the U.S. government's official web portal to all federal, state and local government web resources and services.